Voltar ao catálogo

CZ-6A DEB

AtivoPO
NORAD 54307·DEBRIS·🇨🇳 China

Lançado Nov 11, 2022 de Taiyuan Satellite Launch Center

Loading…

Próximas Passagens (próximas 24 horas)

TLE

AtualizadoSource: Space-Track

Época: Sep 14, 2026, 10:57 UTC

1 54307U 22151BA  26257.45671897  .00056069  00000-0  28733-2 0  9990
2 54307  98.5525 338.1593 0028017 294.2799  65.5505 15.16019831133050

Acompanhe CZ-6A DEB em tempo real com AllMySat

Download on the App Store